Simultaneous Nadir Overpasses (SNOs) Predictions

Prediction of SNOs between AURA and NPP Satellite Orbit:

Table of predicted SNOs for the next 14.0 days since TLE Epoch: 12/4/2021
Index Date (AURA) Time (AURA) Lat,Lon (AURA) SZA (AURA ) Date (NPP) Time (NPP) Lat,Lon (NPP) SZA (NPP ) Distance(km) Time Diff (sec)
1 12/05/2021 18:19:00 -79.47, -18.12 65.91 12/05/2021 18:18:26 -79.47, -18.07 65.90 1.03 34
2 12/05/2021 19:08:21 79.66, 150.83 113.84 12/05/2021 19:09:05 79.65, 150.77 113.82 1.39 44
3 12/08/2021 10:35:28 -79.52, 98.07 65.63 12/08/2021 10:35:16 -79.51, 98.05 65.62 0.61 12
4 12/08/2021 11:24:49 79.70, -92.98 114.13 12/08/2021 11:25:55 79.69, -93.12 114.11 2.89 66
5 12/11/2021 02:02:37 79.27, 44.68 115.00 12/11/2021 02:01:30 79.27, 44.60 115.06 1.64 67
6 12/11/2021 02:51:56 -79.59,-145.53 65.43 12/11/2021 02:52:06 -79.59,-145.57 65.43 0.94 10
7 12/13/2021 18:19:03 79.41, 161.48 115.05 12/13/2021 18:18:18 79.41, 161.45 115.09 0.74 45
8 12/13/2021 19:08:24 -79.65, -29.20 65.28 12/13/2021 19:08:56 -79.65, -29.21 65.30 0.24 32
9 12/16/2021 10:35:29 79.54, -81.75 115.07 12/16/2021 10:35:06 79.54, -81.68 115.07 1.48 23



Historial Predications of SNOs between AURA and NPP
